Probability
0 0 0 0 0 0 0 0 0 0 0 0 0 0 0 0 0 0 0 0 0 0 0 0 0 0 0 0 0 0 0 0 0 0 0 0 0 0 0 0 0 0 0
0 0 0 0 0 0 0 0 0 0 0 0 0 0 0 0 0 0 0 0 0 0 0 0 0 0 0 0 0 0 0 0 0 0 0 0 0 0 0 0 0 0 0
0 0 0 0 0 0 0 0 0 0 0 0 0 0 0 0 0 0 0 0 0 0 0 0 0 0 0 0 0 0 0 0 0 0 0 0 0 0 0 0 0 0 0
0 0 0 0 0 0 0 0 0 0 0 0 0 0 0 0 0 0 0 0 0 0 0 0 0 0 0 0 0 0 0 0 0 0 0 0 0 0 0 0 0 0 0
0 0 0 0 0 0 0 0 0 0 0 0 0 0 0 0 0 0 0 0 0 0 0 0 0 0 0 0 0 0 0 0 0 0 0 0 0 0 0 0 0 0 0
0 0 0 0 0 0 0 0 0 0 0 0 0 0 0 0 0 0 0 0 0 0 0 0 0 0 0 0 0 0 0 0 0 0 0 0 0 0 0 0 0 0 0
0 0 0 0 0 0 0 0 0 0 0 0 0 0 0 0 0 0 0 0 0 0 0 0 0 0 0 0 0 0 0 0 0 0 0 0 0 0 0 0 0 0 0
0 0 0 0 0 0 0 0 0 0 0 0 0 0 0 0 0 0 0 0 0 0 0 0 0 0 0 0 0 0 0 0 0 0 0 0 0 0 0 0 0 0 0
0 0 0 0 0 0 0 0 0 0 0 0 0 0 0 0 0 0 0 0 0 0 0 0 0 0 0 0 0 0 0 0 0 0 0 0 0 0 0 0 0 0 0
0 0 0 0 0 0 0 0 0 0 0 0 0 0 0 0 0 0 0 0 0 0 0 0 0 0 0 0 0 0 0 0 0 0 0 0 0 0 0 0 0 0 0
0 0 0 0 0 0 0 0 0 0 0 0 0 0 0 0 0 0 0 0 0 0 0 0 0 0 0 0 0 0 0 0 0 0 0 0 0 0 0 0 0 0 0
0 0 0 0 0 0 0 0 0 0 0 0 0 0 0 0 0 0 0 0 0 0 0 0 0 0 0 0 0 0 0 0 0 0 0 0 0 0 0 0 0 0 0
0 0 0 0 0 0 0 0 0 0 0 0 0 0 0 0 0 0 0 0 0 0 0 0 0 0 0 0 0 0 0 0 0 0 0 0 0 0 0 0 0 0 0
0 0 0 0 0 0 0 0 0 0 0 0 0 0 0 0 0 0 0 0 0 0 0 0 0 0 0 0 0 0 0 0 0 0 0 0 0 0 0 0 0 0 0
0 0 0 0 0 0 0 0 0 0 0 0 0 0 0 0 0 0 0 0 0 0 0 0 0 0 0 0 0 0 0 0 0 0 0 0 0 0 0 0 0 0 0
0 0 0 0 0 0 0 0 0 0 0 0 0 0 0 0 0 0 0 0 0 0 0 0 0 0 0 0 0 0 0 0 0 0 0 0 0 0 0 0 0 0 0
0 0 0 0 0 0 0 0 0 0 0 0 0 0 0 0 0 0 0 0 0 0 0 0 0 0 0 0 0 0 0 0 0 0 0 0 0 0 0 0 0 0 0
0 0 0 0 0 0 0 0 0 0 0 0 0 0 0 0 0 0 0 0 0 0 0 0 0 0 0 0 0 0 0 0 0 0 0 0 0 0 0 0 0 0 0
0 0 0 0 0 0 0 0 0 0 0 0 0 0 0 0 0 0 0 0 0 0 0 0 0 0 0 0 0 0 0 0 0 0 0 0 0 0 0 0 0 0 0
0 0 0 0 0 0 0 0 0 0 0 0 0 0 0 0 0 0 0 0 0 0 0 0 0 0 0 0 0 0 0 0 0 0 0 0 0 0 0 0 0 0 0
0 0 0 0 0 0 0 0 0 0 0 0 0 0 0 0 0 0 0 0 0 0 0 0 0 0 0 0 0 0 0 0 0 0 0 0 0 0 0 0 0 0 0
0 0 0 0 0 0 0 0 0 0 0 0 0 0 0 0 0 0 0 0 0 0 0 0 0 0 0 0 0 0 0 0 0 0 0 0 0 0 0 0 0 0 0
0 0 0 0 0 0 0 0 0 0 0 0 0 0 0 0 0 0 0 0 0 0 0 0 0 0 0 0 0 0 0 0 0 0 0 0 0 0 0 0 0 0 0
0 0 0 0 0 0 0 0 0 0 0 0 0 0 0 0 0 0 0 0 0 0 0 0 0 0 0 0 0 0 0 0 0 0 0 0 0 0 0 0 0 0 0
0 0 0 0 0 0 0 0 0 0 0 0 0 0 0 0 0 0 0 0 0 0 0 0 0 0 0 0 0 0 0 0 0 0 0 0 0 0 0 0 0 0 0
0 0 0 0 0 0 0 0 0 0 0 0 0 0 0 0 0 0 0 0 0 0 0 0 0 0 0 0 0 0 0 0 0 0 0 0 0 0 0 0 0 0 0
Wind_Speed
14 13 15 15 15 15 16 16 16 15 13 10 9 8 8 8 8 8 10 11 10 10 9 6 7 6 6 6 5 4 4 2 1 2 1 1 1 2 2 3 3 5 6
12 13 15 16 17 18 17 17 17 16 15 12 10 7 8 8 9 8 10 12 11 11 9 10 7 7 6 6 6 5 3 2 2 2 2 1 2 3 2 2 3 4 4
15 15 16 18 18 19 19 16 18 18 18 16 10 7 7 5 7 9 9 11 12 12 11 11 9 8 8 7 7 7 6 4 3 2 2 2 1 0 2 2 2 3 3
16 15 16 18 20 20 18 19 19 19 18 17 14 15 12 12 12 10 10 11 13 13 12 11 11 9 8 8 7 7 6 5 4 3 2 2 2 2 1 2 2 3 3
18 18 18 19 19 19 18 18 19 19 19 19 18 18 16 13 10 10 12 12 11 12 12 12 10 10 8 8 8 8 7 5 5 4 3 3 2 3 3 3 1 1 2
20 19 17 16 16 16 16 17 19 20 20 20 20 20 19 17 14 14 12 10 8 9 12 11 10 10 8 9 8 8 8 6 6 4 4 4 3 4 4 4 3 2 1
19 18 18 17 17 17 18 18 20 21 21 21 21 21 21 19 19 16 14 12 9 9 11 11 10 9 9 8 8 7 7 7 7 6 4 4 3 2 3 3 2 2 1
15 16 17 17 17 17 18 19 21 21 21 21 21 20 20 15 14 16 13 13 10 10 12 12 11 10 9 8 8 6 6 6 6 6 6 4 3 3 3 3 3 3 3
13 14 13 14 14 15 17 19 20 20 20 21 20 19 19 18 16 15 15 12 10 9 12 12 11 10 10 9 8 6 7 7 6 6 6 5 4 3 3 3 3 3 3
11 12 11 11 11 12 12 14 17 18 18 18 18 14 18 18 16 13 14 12 12 11 12 12 11 10 10 9 8 7 7 8 7 6 7 6 5 4 4 3 2 2 2
9 8 7 7 8 8 9 12 14 15 15 16 16 16 16 15 14 13 14 13 11 12 12 12 12 11 11 10 9 9 10 10 8 7 8 8 7 5 4 4 3 3 2
6 6 6 6 7 8 9 10 11 12 13 13 14 14 13 13 13 13 13 12 12 12 12 12 12 11 11 11 11 11 11 11 11 10 9 9 7 7 5 4 4 3 2
5 5 5 6 7 8 8 8 9 10 9 10 11 11 12 13 13 12 11 12 12 12 11 12 12 12 12 11 11 11 11 10 10 11 10 10 10 8 6 6 5 4 3
5 6 6 6 7 7 8 8 8 8 8 9 10 11 11 11 10 10 11 11 12 12 13 12 12 12 12 12 11 11 11 10 10 9 9 10 9 9 9 6 6 5 4
7 7 7 7 7 8 8 8 8 7 7 8 9 9 8 8 8 9 9 9 10 11 11 11 10 11 10 11 13 12 12 12 11 9 8 8 7 8 7 6 6 6 4
10 8 8 8 9 9 9 9 8 8 8 8 8 6 6 7 8 8 8 9 9 9 10 11 12 12 9 14 17 14 12 11 12 11 9 8 8 9 9 8 7 6 5
12 10 10 10 10 10 10 10 9 8 8 7 6 6 6 7 7 8 9 9 10 10 10 10 11 11 12 20 19 16 12 12 11 11 10 7 7 8 7 8 8 6 5
13 12 10 9 8 8 9 8 8 8 8 7 7 7 7 7 7 8 9 8 8 10 10 10 11 10 13 20 20 17 11 10 10 10 10 10 10 8 8 7 6 5 5
12 10 8 7 6 8 9 9 8 8 9 9 9 8 8 8 9 9 9 8 8 8 8 9 10 11 13 19 21 18 10 9 9 8 9 9 9 12 12 8 7 6 4
8 6 4 4 5 6 8 9 9 9 10 9 8 8 8 9 10 9 8 7 7 8 8 8 8 10 12 19 21 18 9 9 8 7 7 8 10 12 13 8 7 7 6
3 2 3 4 4 6 8 9 9 9 6 5 6 7 7 7 8 8 7 8 8 9 8 9 7 7 9 17 20 17 8 9 9 8 7 7 13 13 14 10 7 7 5
2 1 1 2 2 5 7 7 7 4 5 6 7 7 6 6 6 8 8 9 10 11 10 9 8 6 6 10 15 17 12 11 8 8 7 8 14 14 13 9 8 9 6
3 2 2 3 3 3 4 4 3 5 6 6 6 6 6 6 7 9 10 9 9 8 8 9 9 8 6 8 14 15 15 14 7 6 9 11 13 12 9 9 9 7 5
4 3 3 3 3 2 2 2 4 5 6 6 6 6 7 7 7 6 7 8 9 9 9 9 9 8 8 8 8 8 9 10 8 6 7 11 11 9 6 5 6 5 5
4 4 3 3 3 3 3 3 3 5 5 5 5 6 6 6 6 6 6 7 6 8 10 9 10 11 11 13 16 12 9 9 8 8 5 6 6 7 6 6 5 5 5
5 5 5 5 4 3 4 3 2 3 5 5 5 5 5 5 5 5 4 5 5 6 7 8 9 6 7 15 20 18 15 15 15 9 6 8 8 8 8 7 7 6 6
Wind_Direction
223 211 209 207 206 205 203 201 197 196 191 190 193 197 205 205 207 208 207 205 203 199 202 203 202 200 208 211 209 210 220 230 254 277 281 161 121 103 96 85 72 63 54
217 208 207 206 208 208 206 206 204 199 196 195 194 196 198 208 209 205 208 208 205 202 203 206 203 201 206 208 202 202 210 202 203 260 277 240 172 138 112 89 69 59 53
225 212 206 207 208 211 209 207 206 204 201 200 197 193 197 198 202 208 208 208 207 205 202 207 205 202 203 207 202 200 207 212 194 222 253 265 243 174 153 117 84 60 48
228 222 210 208 209 212 210 210 209 207 204 202 202 200 203 208 209 206 206 206 206 207 204 205 205 204 203 207 203 199 204 210 203 190 224 261 293 264 232 161 118 69 46
227 223 216 212 211 209 209 210 210 210 207 204 206 207 215 218 214 209 208 206 204 207 205 204 204 204 204 205 198 195 198 201 205 191 180 193 208 237 252 259 247 82 65
228 227 222 215 214 209 208 209 210 212 209 207 209 211 214 215 212 208 206 204 201 202 205 202 204 203 200 201 198 194 192 193 195 190 188 189 188 192 208 242 263 285 69
229 225 221 215 213 208 207 207 209 212 210 209 211 213 215 215 215 211 209 202 199 200 201 198 200 200 198 194 188 185 185 188 186 186 185 189 191 174 189 225 240 247 224
235 230 225 218 215 210 207 207 210 213 210 210 212 213 214 214 216 213 208 205 202 201 198 195 195 193 188 183 179 175 174 176 175 172 169 160 155 164 178 197 203 219 215
238 236 233 226 221 215 210 209 211 213 212 211 211 212 212 213 213 209 208 207 202 194 192 187 185 184 180 175 168 166 165 162 159 156 150 142 138 141 151 165 197 219 222
244 237 232 227 225 222 217 214 216 216 214 213 212 211 211 212 211 206 203 200 195 189 184 181 178 175 172 166 161 154 158 153 147 146 146 141 139 136 140 150 166 210 233
255 249 242 233 226 221 217 215 216 217 215 213 212 210 211 209 207 205 201 195 188 185 183 178 172 170 167 162 159 157 157 153 147 147 148 146 147 146 145 149 156 167 200
269 259 247 232 221 217 215 216 216 216 216 212 210 209 207 203 202 202 196 188 184 182 179 172 169 167 164 163 161 159 161 158 156 156 154 152 152 151 151 155 160 161 176
269 257 241 233 227 221 216 215 214 214 213 209 208 205 203 201 200 195 186 181 179 174 170 170 170 167 164 162 162 159 160 160 158 159 161 159 159 160 160 162 162 159 164
265 265 255 243 234 228 221 216 214 207 202 204 206 205 203 201 195 184 179 177 173 172 171 171 169 164 161 159 156 155 154 153 152 156 159 162 167 165 164 163 164 163 168
272 259 252 243 233 225 220 215 211 202 196 199 205 205 195 189 180 175 172 167 168 170 165 160 158 157 157 161 158 155 154 152 150 152 156 159 158 160 163 164 167 170 175
274 264 250 240 233 224 216 209 206 197 193 198 201 191 180 174 171 167 160 157 158 156 156 158 158 161 163 162 159 153 153 154 155 155 154 151 155 160 164 169 173 178 182
268 262 251 241 230 220 210 207 198 187 191 193 183 174 172 172 167 159 157 162 162 158 160 159 160 162 161 161 158 153 152 156 160 159 158 159 164 167 167 171 175 181 197
259 258 252 246 231 209 202 196 183 183 187 188 183 178 177 171 160 160 164 164 160 162 159 159 161 155 160 162 157 151 149 152 157 162 164 164 168 176 173 172 177 186 197
257 259 251 240 214 196 186 178 180 183 189 192 191 184 177 169 166 170 167 161 158 158 156 158 158 155 158 163 158 153 148 149 155 160 166 169 172 179 181 178 182 192 202
255 252 236 214 202 188 171 174 184 191 200 196 188 179 176 174 174 171 161 156 155 154 149 151 158 157 158 165 164 158 152 153 156 162 169 179 181 184 188 187 188 198 199
269 243 207 202 198 168 166 181 190 202 193 169 165 170 176 175 169 158 154 152 148 146 147 147 150 153 158 168 169 167 161 162 163 169 176 185 189 192 195 194 198 206 190
9 27 167 151 133 150 169 186 198 177 146 152 161 168 169 165 158 155 154 155 154 153 153 151 151 154 159 170 176 177 175 167 169 176 177 182 189 193 196 199 201 202 194
25 33 78 95 91 129 165 181 165 142 145 152 160 161 161 161 162 163 161 160 163 163 164 164 165 166 170 180 182 182 181 178 173 173 176 179 187 191 199 205 201 196 198
34 39 80 91 78 80 90 104 124 140 148 158 160 160 165 167 167 169 171 173 176 174 173 175 174 170 174 181 180 180 180 181 178 170 174 182 190 194 190 194 201 200 206
36 42 60 74 72 73 74 84 122 141 149 154 158 164 171 171 173 177 186 189 193 193 184 185 179 175 186 193 184 176 180 180 176 159 161 179 188 196 200 201 202 200 199
46 49 50 56 56 64 66 66 104 141 150 157 166 171 172 172 174 171 171 196 196 202 203 194 186 192 191 178 185 188 186 181 172 166 186 197 202 205 204 204 203 203 206